GFSNE_700_spd_195.txt.gz
Wind_Speed
39 40 42 31 32 27 26 23 25 28 32 28 21 17 19 20 18 18 19 21 22 23 23 25 27 29 31 34 35 36 38 39 40 39 39 38 39 40
47 40 35 39 30 27 28 26 26 28 29 26 21 18 19 21 19 21 23 23 26 27 28 29 31 34 36 39 40 41 42 42 42 43 42 43 42 42
40 45 41 35 32 30 30 24 22 22 25 24 22 19 21 21 21 23 23 24 26 28 32 33 36 39 41 42 44 45 47 47 45 44 46 46 45 46
42 37 32 28 29 22 24 23 20 20 21 21 21 22 22 22 23 24 23 25 26 29 32 35 38 39 41 44 47 49 49 51 50 48 46 47 48 47
30 31 34 26 20 21 23 20 21 20 20 20 21 21 23 22 23 22 24 26 28 30 32 33 35 38 40 41 43 47 51 53 53 53 51 49 48 50
37 38 24 20 19 22 21 21 21 19 19 19 19 22 23 23 23 23 25 26 26 31 34 35 37 38 40 41 44 46 48 50 52 53 54 55 54 52
30 20 16 20 21 22 21 21 19 17 17 18 20 23 22 22 23 25 26 27 29 32 34 36 39 40 42 42 42 42 42 43 45 47 50 52 54 54
17 18 20 20 20 20 20 18 16 16 15 19 21 21 21 21 23 25 27 30 31 34 39 37 41 44 44 40 40 40 40 40 42 45 47 49 51 53
16 20 19 20 21 19 18 16 16 16 17 19 21 20 20 23 25 27 30 32 35 38 42 41 44 45 44 42 43 41 39 39 41 43 45 47 49 51
18 16 18 19 18 17 15 15 14 15 19 19 20 21 22 24 28 30 32 34 36 37 42 45 46 47 46 42 42 40 39 39 40 42 44 46 47 48
17 20 21 19 16 15 14 16 16 18 18 19 20 22 24 27 30 32 35 37 39 37 41 46 47 50 48 45 43 42 42 41 41 42 43 45 47 49
18 17 18 15 14 15 16 16 16 17 18 20 21 24 26 29 32 35 38 39 40 40 42 49 46 51 55 50 45 44 43 43 43 43 43 44 46 49
19 17 16 15 15 15 15 16 17 18 19 20 23 25 28 30 33 35 37 39 39 40 44 49 50 50 52 55 49 46 46 46 46 46 44 44 46 47
16 17 15 15 15 16 16 17 17 19 21 23 25 28 30 32 34 36 37 38 39 42 43 46 50 50 51 52 50 48 48 48 48 48 49 48 47 46
17 17 15 15 16 17 17 18 20 22 24 27 29 30 33 34 36 36 36 38 39 40 42 45 47 48 49 50 51 49 52 51 48 49 51 52 51 50
16 17 17 17 18 18 19 21 23 25 27 29 31 33 35 36 37 38 38 39 41 41 41 41 43 46 47 48 50 49 51 53 52 52 54 55 53 51
17 18 18 18 19 20 22 24 26 28 30 32 34 35 37 38 38 38 40 42 44 45 44 42 42 44 46 48 49 50 51 53 51 53 55 58 55 54
18 18 19 20 21 23 25 27 29 30 33 35 36 37 38 39 39 39 41 43 45 45 45 44 45 46 47 49 48 50 50 53 53 53 53 59 59 53
19 20 21 23 24 25 27 28 31 33 35 36 37 38 39 41 40 41 43 44 45 45 45 45 45 47 51 53 53 48 52 54 55 56 53 54 59 56
21 22 23 25 26 28 30 32 34 35 37 38 38 39 42 42 41 42 44 45 46 46 46 45 45 47 50 54 59 55 46 53 55 57 57 54 53 54
23 24 25 27 29 31 33 34 35 36 38 39 39 40 43 41 42 43 44 45 46 46 46 46 46 48 50 53 57 56 51 44 49 53 55 54 53 56
25 26 28 30 31 33 34 35 36 38 38 39 40 43 41 41 43 44 44 45 45 46 46 47 48 49 50 52 56 57 55 49 44 45 43 42 47 59
28 29 30 32 33 35 36 37 38 38 39 40 43 41 41 42 43 44 44 44 45 46 47 48 49 49 49 51 54 55 53 50 49 47 41 33 35 46

GFSNE_700_spd_198.txt.gz
Wind_Speed
45 43 42 41 40 39 42 37 36 35 35 33 27 25 26 25 22 22 20 20 20 21 20 20 22 21 23 25 26 28 29 32 34 36 37 38 38 38
44 42 40 41 44 45 34 39 43 37 34 31 27 26 27 24 21 22 21 22 21 22 22 24 24 25 26 27 29 31 34 36 38 40 41 41 42 44
49 49 50 51 43 45 34 35 33 40 35 30 31 27 24 22 21 21 21 22 22 22 23 24 27 29 29 30 30 33 36 38 40 42 44 45 45 46
43 40 42 44 38 32 34 37 38 25 23 27 31 28 22 20 20 20 22 22 24 23 24 26 29 30 31 32 35 38 40 43 44 47 48 49 50 50
31 36 35 32 33 33 34 24 23 22 26 31 30 26 22 21 22 21 21 23 24 24 25 28 30 31 32 34 37 41 44 46 49 50 53 53 53 52
28 29 27 27 28 23 18 18 21 24 28 30 28 26 24 23 23 22 22 22 24 24 27 28 29 32 34 36 38 41 44 47 49 53 55 55 55 53
22 24 25 27 29 21 20 21 24 26 26 27 28 26 24 23 23 22 21 22 24 27 27 28 30 33 34 35 38 40 43 46 48 51 52 52 52 52
31 35 34 23 15 17 20 25 25 23 23 25 26 24 24 24 22 23 24 24 26 30 30 29 33 34 34 36 38 42 43 44 45 47 47 49 50 50
31 28 24 19 18 21 21 21 24 26 25 24 24 24 24 23 24 25 27 29 29 32 36 31 34 35 37 38 40 42 43 43 44 44 46 48 48 49
26 20 16 18 21 22 23 22 21 20 22 21 22 23 23 24 25 28 29 30 30 33 38 37 37 39 40 39 41 42 42 42 43 44 45 47 48 50
21 13 19 19 20 20 21 21 21 21 20 20 22 22 23 25 27 28 29 31 31 33 38 40 41 44 45 42 43 43 43 42 42 43 45 47 49 50
22 21 19 18 21 22 21 19 19 20 20 20 22 22 23 25 26 28 30 32 35 37 40 42 41 45 50 48 45 45 43 42 43 44 45 47 49 50
17 15 17 19 19 20 20 20 20 19 19 20 21 22 24 26 28 31 33 36 38 40 43 46 44 46 48 51 48 46 44 44 44 44 46 47 48 49
15 16 20 19 19 19 19 19 19 19 19 20 22 24 27 29 31 33 35 38 40 41 43 45 46 47 48 49 50 48 48 48 47 46 48 50 51 50
16 17 17 19 19 19 19 20 20 20 20 22 25 27 29 31 34 36 38 40 40 42 43 45 45 46 48 51 53 49 49 50 48 49 52 54 55 55
14 17 19 19 19 19 19 20 21 22 23 26 28 29 32 35 37 40 41 41 41 40 42 43 45 47 49 50 53 50 49 51 51 52 55 57 58 57
18 20 19 19 18 18 19 21 23 24 26 28 30 32 35 37 39 42 43 43 44 45 42 40 43 46 49 51 51 50 50 50 52 54 56 60 59 58
20 19 18 18 19 20 22 23 25 27 29 31 33 35 38 40 41 42 44 45 46 45 44 44 45 47 48 48 48 50 49 50 52 56 56 61 63 60
18 18 19 20 21 21 23 25 28 30 32 34 36 38 40 42 43 44 45 46 45 44 44 46 47 49 52 51 51 51 50 52 56 58 58 60 65 60
19 20 20 21 22 23 25 28 30 32 34 37 39 40 42 44 45 44 46 46 44 44 45 46 47 49 51 52 53 52 51 52 57 60 62 62 60 59
20 21 22 22 24 26 29 31 33 35 38 40 41 42 44 45 44 46 45 44 45 46 47 48 48 49 50 52 53 54 53 48 51 58 61 61 61 60
23 24 25 25 26 29 32 34 36 38 40 42 42 43 43 43 46 45 43 44 45 46 48 49 49 49 50 52 55 57 56 53 50 52 53 53 55 58
25 26 26 27 30 34 36 38 39 40 41 41 42 41 42 45 43 43 44 45 46 47 48 49 49 50 51 53 55 57 56 54 56 55 48 47 44 45

GFSNE_700_spd_204.txt.gz
Wind_Speed
48 49 47 44 46 48 46 42 42 42 39 36 32 32 33 32 39 29 32 28 26 28 26 26 26 27 25 25 24 24 24 23 23 23 24 26 26 29
56 51 55 60 53 50 57 52 52 42 39 34 29 32 40 46 41 33 30 26 23 24 25 27 28 28 26 25 25 24 24 25 26 26 28 27 28 29
32 40 50 44 55 67 68 65 56 53 44 49 50 48 51 46 42 30 28 32 33 29 29 30 29 28 27 26 26 26 25 26 26 27 28 29 31 31
22 21 24 22 28 42 52 57 57 47 46 48 50 50 51 49 34 30 34 28 29 28 29 30 29 27 27 27 26 25 25 26 27 28 31 31 31 33
21 21 20 20 21 29 38 42 42 42 42 43 45 42 43 37 26 27 28 28 27 28 29 29 28 27 27 27 26 26 26 27 27 28 31 32 33 35
21 22 23 21 21 25 28 35 38 36 38 39 39 35 29 25 22 23 26 28 30 29 28 28 27 27 27 26 25 26 27 28 30 31 33 35 36 35
22 21 23 21 22 24 25 28 31 30 29 27 26 25 24 21 24 26 26 32 30 28 28 27 26 26 26 26 26 27 29 30 33 36 37 37 36 36
20 21 22 23 24 24 22 22 23 21 18 18 18 21 24 24 23 24 27 30 29 27 26 27 25 26 26 27 28 29 31 34 36 38 39 40 40 40
18 20 21 22 24 23 21 19 19 24 25 21 22 23 23 23 23 23 25 27 27 26 26 26 26 27 28 30 30 31 33 36 38 39 41 42 42 44
20 22 24 25 25 23 22 22 23 23 21 20 21 21 22 21 22 22 24 26 26 25 26 26 28 29 30 31 31 32 33 36 39 41 42 43 44 45
22 22 20 20 19 19 21 26 25 23 22 19 21 22 22 22 23 23 23 23 25 29 28 28 28 29 29 32 33 34 36 38 40 41 43 44 46 47
20 19 19 18 20 19 23 23 22 24 23 24 23 22 20 20 21 22 23 25 28 29 28 28 29 33 33 33 35 36 38 39 40 42 44 46 48 50
16 18 19 19 20 20 20 19 20 22 20 20 21 22 23 23 22 23 23 24 25 28 30 31 32 35 38 39 36 38 40 40 42 43 45 47 49 51
16 18 18 20 21 17 20 21 16 16 17 17 18 18 19 22 23 23 24 25 25 28 32 35 36 39 42 44 45 42 40 41 44 45 47 49 50 50
16 17 19 20 20 21 22 22 21 19 17 17 19 21 22 22 22 23 25 27 30 32 34 37 41 42 44 46 48 47 48 47 46 49 52 53 52 51
15 17 20 20 20 21 21 18 17 19 18 18 20 20 21 23 24 26 28 29 32 35 38 40 43 45 46 47 50 50 50 52 50 52 54 51 52 53
17 20 19 19 17 16 16 13 13 15 19 21 21 22 23 25 27 28 31 33 35 36 38 42 44 46 48 49 50 50 52 53 52 53 54 55 54 56
18 15 14 15 14 13 12 16 19 20 20 21 22 24 25 27 29 31 34 36 38 40 42 43 44 47 48 48 50 53 50 49 51 54 56 59 60 57
13 13 15 13 13 13 16 19 21 22 23 24 25 26 27 29 31 35 37 39 42 44 44 46 47 49 51 53 50 47 50 53 56 57 58 59 62 60
15 16 17 16 17 19 20 22 24 25 26 27 28 29 31 33 36 38 40 43 44 46 45 45 48 51 51 52 54 52 51 54 55 57 59 60 61 61
17 18 18 19 20 21 24 25 26 27 28 30 32 33 35 37 39 42 43 44 45 45 46 48 48 50 51 53 54 54 53 53 54 57 60 62 63 65
18 19 18 19 21 24 25 27 28 30 32 34 35 37 38 40 41 42 43 43 44 48 49 49 49 49 50 51 53 54 55 55 54 55 55 55 58 64
19 18 18 20 22 25 28 30 31 34 35 36 38 39 39 40 41 42 43 46 48 48 48 48 48 49 50 52 55 56 55 55 56 57 54 52 53 56

GFSNE_700_spd_210.txt.gz
Wind_Speed
66 62 62 64 61 65 64 66 65 65 62 53 47 42 42 40 36 37 37 31 31 31 32 33 30 31 31 32 32 32 31 31 30 29 28 29 28 28
61 60 59 62 64 65 64 60 63 68 60 59 49 49 44 42 38 39 35 38 47 39 37 36 40 40 37 35 34 34 33 33 31 30 30 30 30 29
54 56 54 55 60 62 57 57 59 62 51 51 49 49 51 48 51 50 55 47 44 42 43 47 40 36 33 35 34 34 34 32 31 31 30 30 29 31
46 51 57 56 59 58 59 56 52 60 64 60 48 49 46 53 51 45 40 43 47 48 43 39 37 37 37 31 31 34 32 29 31 31 31 31 30 31
51 48 51 52 56 53 49 49 53 55 53 53 57 58 58 49 42 43 45 44 44 39 40 42 42 39 43 45 42 34 31 34 35 34 31 31 31 30
40 42 41 36 37 37 39 46 46 47 50 50 50 46 40 41 40 41 39 38 41 40 44 45 40 36 31 29 28 29 32 34 36 34 34 33 32 33
34 38 32 32 36 40 42 43 41 41 39 35 32 33 33 34 33 35 37 40 41 39 38 33 31 26 31 33 31 31 32 36 38 37 36 34 33 33
28 29 28 31 31 33 31 30 28 23 24 25 27 29 29 31 36 39 37 37 35 34 33 29 27 29 28 29 28 31 33 34 34 33 34 35 35 34
24 25 25 24 24 23 20 20 22 25 27 29 31 35 36 34 34 31 32 32 35 27 27 28 27 29 30 31 30 32 32 32 31 32 35 35 36 36
17 17 18 17 18 19 20 21 22 22 23 23 24 26 26 27 29 32 31 31 27 24 27 28 27 28 28 28 28 29 30 31 31 33 34 35 35 36
10 10 12 13 15 17 18 17 17 18 19 20 21 23 23 22 22 24 25 26 26 24 24 25 24 25 26 26 26 26 28 30 31 33 35 37 39 40
11 13 15 17 17 17 17 16 17 19 20 20 21 20 19 21 23 23 22 25 24 23 20 19 19 21 24 24 24 26 29 31 34 36 39 42 43 44
14 15 15 16 16 16 17 16 16 16 16 17 16 17 19 19 19 20 20 20 20 18 18 18 20 23 27 27 28 30 32 35 37 40 43 45 45 47
13 13 13 14 15 16 15 15 16 16 15 15 16 18 19 19 19 19 18 17 17 18 19 20 21 25 29 32 33 32 34 36 39 41 44 46 48 48
14 14 14 15 14 13 14 14 15 15 15 15 16 17 17 17 17 17 17 18 21 21 20 23 25 27 31 34 36 37 38 40 41 43 44 46 49 50
14 12 14 14 15 15 13 12 13 14 15 16 17 17 17 17 18 19 16 17 19 21 24 27 30 33 37 37 39 39 40 42 43 45 48 49 51 52
13 14 12 13 13 13 12 13 14 14 15 15 14 13 14 15 15 15 18 20 22 24 28 30 32 35 37 40 42 44 44 45 47 49 49 49 52 53
14 14 13 12 13 12 12 12 13 13 13 13 11 11 12 13 14 18 21 24 27 29 31 33 36 38 42 44 45 45 45 47 48 50 52 52 52 51
14 13 11 11 10 9 9 9 11 11 10 10 12 13 16 18 20 21 23 26 28 31 34 37 40 43 45 46 48 49 46 48 50 51 52 53 56 56
13 12 11 13 11 10 11 12 12 11 12 14 15 17 18 19 21 24 27 29 32 35 37 40 42 43 45 48 49 48 52 53 52 53 54 56 58 58
13 12 11 12 12 13 12 12 12 14 14 15 16 18 20 23 25 28 31 33 35 38 40 41 44 44 46 49 52 52 51 52 52 54 56 59 60 60
11 11 12 12 12 12 12 13 14 15 16 17 19 21 24 26 29 31 33 36 38 39 41 43 45 47 48 49 50 51 52 53 54 54 54 52 52 55
10 10 12 12 12 13 14 14 16 17 19 21 23 24 26 29 30 33 35 37 38 40 43 44 45 46 47 48 52 54 54 51 50 49 50 50 52 53